Regional Weather Roundup
Issued by NWS Austin/San Antonio, TX

Home | Current Version | Previous Version | Text Only | Print | Product List | Glossary On
Versions: 1 2 3 4 5 6 7 8 9 10 11 12 13 14 15 16 17 18 19 20 21 22 23 24 25 26 27 28 29 30 31 32 33 34 35 36 37 38 39 40 41 42 43 44 45 46 47 48 49 50
000
ASUS44 KEWX 190101
RWREWX
SOUTH TEXAS REGIONAL WEATHER ROUNDUP
NATIONAL WEATHER SERVICE AUSTIN/SAN ANTONIO TX
700 PM CST SUN FEB 18 2018

NOTE: "FAIR" INDICATED FEW OR NO CLOUDS BELOW 12,000 FEET WITH NO
SIGNIFICANT WEATHER AND/OR OBSTRUCTIONS TO VISIBILITY.

* - THESE STATIONS ARE NOT NWS OR FAA STATIONS...AND ARE NOT SUBJECT
    TO NWS AND FAA QUALITY CONTROL.

TXZ171-172-183>190-190200-
TEXAS HILL COUNTRY AND EDWARDS PLATEAU

CITY           SKY/WX    TMP DP  RH WIND       PRES   REMARKS
JUNCTION       LGT RAIN  67  61  81 E6        29.88S
*LLANO         PTCLDY    70  63  78 SE5       29.93F
BURNET         PTCLDY    67  62  84 SE5       29.92F
*HORSESHOE BAY PTCLDY    68  63  83 SE3       29.91S
*KERRVILLE     PTCLDY    72  63  74 SE8       29.92S
*FREDERICKSBRG PTCLDY    69  59  70 S5        29.91F
*ROCKSPRINGS   MOCLDY    64  61  88 S9G15     29.95S
*BOERNE STAGE  CLOUDY    72  59  64 S16G24    29.93S
*CASTROVILLE   PTCLDY    76  59  55 SE16G22   29.91S
HONDO          PTCLDY    77  63  61 SE10      29.89F
*UVALDE        PTCLDY    75  58  54 SE7       29.88S
DEL RIO        CLOUDY    69  63  81 SE7       29.84F
LAUGHLIN AFB   CLOUDY    69  63  82 S6        29.85F
CARRIZO SPRGS  PTCLDY    77  59  53 S6        29.84S
*EAGLE PASS    CLEAR     70  63  78 W3        29.85S
*FAITH RANCH   CLEAR     81  59  47 SE9       29.85S
$$

TXZ173-191>194-202-209-217>225-228-190200-
CENTRAL AND SOUTH CENTRAL TEXAS

CITY           SKY/WX    TMP DP  RH WIND       PRES   REMARKS
GEORGETOWN     MOCLDY    73  63  70 SE15G21   29.92F
AUSTIN/BERGSTM MOCLDY    73  63  70 S16       29.91F
AUSTIN/MABRY   MOCLDY    74  62  66 SE8G20    29.92F
*AUSTIN/EXEC   MOCLDY    73  63  68 S15G24    29.92S
*LAGO VISTA    PTCLDY    69  64  85 SE9       29.92F
SAN MARCOS     PTCLDY    74  60  61 S20       29.93R
NEW BRAUNFELS  PTCLDY    74  58  57 S22G31    29.91S
RANDOLPH AFB   PTCLDY    73  61  65 SE14      29.92R
PT SAN ANTONIO PTCLDY    75  61  60 SE16G25   29.89S
SAN ANTONIO    MOCLDY    75  60  59 SE22G31   29.92R
STINSON FIELD  PTCLDY    77  61  57 SE15G22   29.89S
*LA GRANGE     CLOUDY    73  65  74 SE14G21   29.94S
*GIDDINGS      CLOUDY    72  61  69 S10       29.96R
*GONZALES      CLOUDY    74  64  70 SE16G22   29.94R
$$

TXZ163>164-176>182-195>201-210>213-226-227-235-190200-
SOUTHEAST TEXAS

CITY           SKY/WX    TMP DP  RH WIND       PRES   REMARKS
COLLEGE STN    CLOUDY    73  63  70 S17       29.95S
*BRYAN         CLOUDY    73  62  69 S12       29.97R
*CALDWELL      CLOUDY    72  62  72 S18       29.95S
*CROCKETT      LGT RAIN  72  64  78 S10G17    29.99F
*BRENHAM       CLOUDY    74  64  71 S14G22    29.98S
HUNTSVILLE     FAIR      72  64  76 SE13G20   29.98S
CONROE         FAIR      71  67  87 SE14      30.00F
HOUSTON BUSH   MOCLDY    73  66  78 S10       30.01S
HOUSTON HOBBY  MOCLDY    70  68  93 SE10G20   30.02S
*HOUSTON SW AP FAIR      69  67  92 SE5       30.04S
PEARLAND       FAIR      71  69  93 SE8       30.04F
HOUSTON HOOKS  FAIR      72  65  78 S8        30.00S
ELLINGTON FLD  PTCLDY    70  66  88 SE12      30.04S
SUGAR LAND     FAIR      74  66  76 S14       30.01S
*HOUSTON EXEC  FAIR      72  64  78 S12G18    30.01S
*CLEVELAND MUN FAIR      70  64  81 S8        30.03S
*WHARTON       FAIR      70  64  81 SE10      30.01S
*COLUMBUS      FAIR      70  64  79 SW8G16    30.00S
*EAGLE LAKE    CLOUDY    71  66  84 S12G17    29.99S
$$

TXZ214>216-236>238-190200-
THE UPPER TEXAS COAST

CITY           SKY/WX    TMP DP  RH WIND       PRES   REMARKS
*ORANGE        CLOUDY    69  69 100 S7        30.09S FOG
PORT ARTHUR    CLOUDY    69  67  93 S8        30.06S
GALVESTON      FAIR      68  67  96 SE13      30.05S FOG
ANGLETON       MOCLDY    72  67  84 SE7       30.03S
*BAY CITY      FAIR      71  68  89 SE10      30.01F
PALACIOS       FAIR      70  69  97 SE15      29.99F
$$

TXZ229>234-239>247-190200-
TEXAS COASTAL BEND AND RIO GRANDE PLAINS

CITY           SKY/WX    TMP DP  RH WIND       PRES   REMARKS
VICTORIA       MOCLDY    71  65  81 SE14      29.98S
*BEEVILLE      FAIR      72  61  67 SE14G21   29.94S
ROCKPORT       FAIR      68  67  96 SE13      29.97S FOG
*PORT ARANSAS  NOT AVBL
*PORT LAVACA   CLOUDY    68  65  91 E9        29.99F
*INGLESIDE     FAIR      71  68  90 MISG      29.96S
CORPUS CHRISTI MOCLDY    71  68  90 SE20      29.95R
CORPUS NAS     FAIR      70  69  97 SE18      29.95F
*ROBSTOWN      FAIR      73  66  79 SE21      29.95R
ALICE          CLEAR     74  63  68 SE16      29.92R
KINGSVILLE NAS PTCLDY    74  66  76 SE17      29.93S
COTULLA        NOT AVBL
LAREDO         PTCLDY    80  63  55 SE18G28   29.87R
$$

TXZ248>255-190200-
DEEP SOUTH TEXAS

CITY           SKY/WX    TMP DP  RH WIND       PRES   REMARKS
BROWNSVILLE    FAIR      75  70  84 SE21G26   29.96S
PORT ISABEL    FAIR      73  67  81 SE15G25   29.95S
*SOUTH PADRE   NOT AVBL
HARLINGEN      FAIR      74  68  81 SE17G28   29.94S
*HEBBRONVILLE  FAIR      77  60  55 S13G22    29.92R
MCALLEN        FAIR      78  68  71 SE21G29   29.93R
*WESLACO       NOT AVBL
FALFURRIAS     CLEAR     79  62  56 SE15G21   29.92R
EDINBURG       FAIR      78  65  63 SE18G26   29.93S
*ZAPATA        FAIR      80  62  54 SE16G25   29.87S
$$

TXZ213>215-236>238-242>244-246-247-251-254-255-190200-
CMAN STATIONS

STATION/POSITION TIME  TEMP    WIND        PRES    WAVE
                       AIR SEA DIR/SP/G            HT/PER
                 (UTC) (F)     (DEG/KT/KT) (MB)    (FT/S)
SABINE PASS      0024   65 68  140/  9/ 10 1019.8
SEA RIM ST PARK  0000   65     140/  7/  9 1018.7
NORTH JETTY/GLS  0018      61  110/  8/  8 1017.1
EAGLE POINT      0024   65 66  160/  8/  9 1017.5
MORGANS POINT    0024   67 61  140/  7/ 11 1017.1
PORT O`CONNOR    0024   66 66  130/ 12/ 13 1015.2
MALAQUITE BEACH  0024   81 63  110/ 16/ 17 1014.0
BAFFIN BAY       0024   68 73  130/ 15/ 19 1014.3
PORT ISABEL      0024   71 66  150/ 13/ 17 1014.5
$$




USA.gov is the U.S. government's official web portal to all federal, state and local government web resources and services.